AE6EO Weather Reports


time (UTC)temp
F
wind
direction
speed
knots
gust
knots
rain 1hr
in
rain 24hr
in
rain mn
in
humidity
%
barometer
mb
20260503192516 64 209 0.9 5.2 0.00 0.00 0.00 59 1013.8
20260503191536 64 293 2.6 7.0 0.00 0.00 0.00 59 1013.8
20260503190514 64 113 1.7 3.5 0.00 0.00 0.00 57 1013.9
20260503185517 63 231 0.9 4.3 0.00 0.00 0.00 59 1013.9
20260503184536 63 197 0.9 4.3 0.00 0.00 0.00 59 1013.9
20260503183535 62 212 0.9 3.5 0.00 0.00 0.00 60 1014.0
20260503182517 62 206 1.7 7.0 0.00 0.00 0.00 61 1014.0
20260503181516 62 261 0.9 4.3 0.00 0.00 0.00 62 1014.0
20260503180515 62 275 1.7 4.3 0.00 0.00 0.00 64 1014.0
20260503175517 61 246 0.9 3.5 0.00 0.00 0.00 65 1014.0
20260503174516 61 200 1.7 6.1 0.00 0.00 0.00 67 1014.0
20260503173518 60 205 0.9 4.3 0.00 0.00 0.00 69 1014.0
20260503172518 60 249 1.7 7.0 0.00 0.00 0.00 69 1014.1
20260503171516 60 240 0.9 3.5 0.00 0.00 0.00 70 1014.1
20260503170515 60 280 0.9 3.5 0.00 0.00 0.00 71 1014.1
20260503150517 57 270 0.9 2.6 0.00 0.00 0.00 76 1013.6
20260503130515 56 330 0.0 1.7 0.00 0.00 0.00 79 1012.3
20260503110516 57 191 0.9 3.5 0.00 0.00 0.00 76 1012.3
20260503081515 57 177 0.0 0.9 0.00 0.00 0.00 75 1012.9
20260503080537 57 235 0.9 1.7 0.00 0.00 0.00 75 1012.9
20260503072517 57 229 0.0 1.7 0.00 0.00 0.00 76 1013.1
20260503071516 56 297 0.0 1.7 0.00 0.00 0.00 76 1013.1
20260503070535 56 298 0.9 1.7 0.00 0.00 0.00 76 1013.0
20260503054637 57 295 0.9 1.7 0.00 0.00 0.00 75 1013.4
20260503053516 57 303 0.0 1.7 0.00 0.00 0.00 74 1013.4
20260503052515 57 282 0.9 2.6 0.00 0.00 0.00 74 1013.5
20260503051517 57 269 0.9 1.7 0.00 0.00 0.00 74 1013.5
20260503050539 57 3 0.9 1.7 0.00 0.00 0.00 74 1013.4
20260503045516 57 3 1.7 2.6 0.00 0.00 0.00 74 1013.4
20260503044517 57 3 1.7 3.5 0.00 0.00 0.00 73 1013.3
20260503043516 57 3 1.7 6.1 0.00 0.00 0.00 73 1013.2
20260503042515 57 355 1.7 6.1 0.00 0.00 0.00 74 1013.1
20260503041517 57 341 1.7 6.1 0.00 0.00 0.00 74 1013.1
20260503040516 57 348 1.7 3.5 0.00 0.00 0.00 74 1013.0
20260503035516 57 341 1.7 3.5 0.00 0.00 0.00 73 1012.9
20260503034515 58 355 2.6 7.8 0.00 0.00 0.00 73 1012.9
20260503033516 58 3 0.9 2.6 0.00 0.00 0.00 73 1012.7
20260503032516 58 1 2.6 6.1 0.00 0.00 0.00 73 1012.7
20260503031515 58 5 1.7 4.3 0.00 0.00 0.00 72 1012.5
20260503030517 59 359 1.7 3.5 0.00 0.00 0.00 71 1012.4
20260503025516 59 359 1.7 6.1 0.00 0.00 0.00 70 1012.2
20260503024535 59 350 2.6 7.8 0.00 0.00 0.00 69 1012.1
20260503023517 60 358 1.7 6.1 0.00 0.00 0.00 68 1012.0
20260503022516 60 312 0.9 2.6 0.00 0.00 0.00 69 1011.9
20260503021515 61 268 0.9 5.2 0.00 0.00 0.00 69 1011.9
20260503020518 61 230 0.9 2.6 0.00 0.00 0.00 68 1012.0
20260503015516 62 246 1.7 4.3 0.00 0.00 0.00 67 1012.0
20260503014515 62 283 1.7 5.2 0.00 0.00 0.00 68 1012.0
20260503013515 63 276 1.7 5.2 0.00 0.00 0.00 67 1012.0
20260503012517 63 216 1.7 5.2 0.00 0.00 0.00 67 1012.0
20260503011516 64 226 2.6 8.7 0.00 0.00 0.00 66 1011.9
20260503010555 64 248 1.7 7.8 0.00 0.00 0.00 65 1011.9
20260503005617 65 227 1.7 7.8 0.00 0.00 0.00 65 1011.9
20260503003515 65 259 1.7 7.0 0.00 0.00 0.00 64 1011.9
20260503002517 66 243 1.7 5.2 0.00 0.00 0.00 63 1012.0
20260503001517 66 227 1.7 7.0 0.00 0.00 0.00 63 1012.0
20260503000515 67 281 1.7 7.0 0.00 0.00 0.00 61 1012.1
20260502235515 68 288 2.6 6.1 0.00 0.00 0.00 60 1012.1
20260502234517 67 232 0.9 3.5 0.00 0.00 0.00 62 1012.1
20260502233536 66 291 2.6 6.1 0.00 0.00 0.00 62 1012.2
20260502232515 66 325 2.6 7.0 0.00 0.00 0.00 62 1012.3
20260502231517 67 295 2.6 7.8 0.00 0.00 0.00 62 1012.4
20260502230516 67 331 3.5 7.8 0.00 0.00 0.00 62 1012.6
20260502225515 66 333 2.6 7.8 0.00 0.00 0.00 62 1012.7
20260502224518 66 349 3.5 8.7 0.00 0.00 0.00 62 1012.8
20260502223516 66 318 2.6 7.0 0.00 0.00 0.00 62 1012.9
20260502222515 66 353 3.5 7.8 0.00 0.00 0.00 63 1013.0
20260502221538 66 327 2.6 5.2 0.00 0.00 0.00 64 1013.3
20260502220516 66 2 3.5 9.6 0.00 0.00 0.00 63 1013.4
20260502215536 66 41 3.5 8.7 0.00 0.00 0.00 64 1013.5
20260502214515 66 343 1.7 5.2 0.00 0.00 0.00 64 1013.6
20260502213517 66 354 1.7 4.3 0.00 0.00 0.00 64 1013.6
20260502212516 66 305 2.6 5.2 0.00 0.00 0.00 64 1013.7
20260502205516 67 248 1.7 7.8 0.00 0.00 0.00 64 1014.0
20260502204535 66 254 1.7 6.1 0.00 0.00 0.00 66 1014.2
20260502203515 66 300 2.6 7.8 0.00 0.00 0.00 64 1014.3
20260502202517 67 273 1.7 4.3 0.00 0.00 0.00 64 1014.3
20260502201516 67 243 1.7 5.2 0.00 0.00 0.00 64 1014.5
20260502200515 66 258 1.7 5.2 0.00 0.00 0.00 65 1014.5
20260502195557 66 264 1.7 6.1 0.00 0.00 0.00 66 1014.7
20260502194522 65 260 1.7 4.3 0.00 0.00 0.00 67 1014.8
20260502193515 65 270 2.6 7.0 0.00 0.00 0.00 67 1014.8